Board Camp, AR

1:22 AM CDT on July 30, 2016 (GMT -0500)
Mena

Weather History for KMEZ - July, 2013

Change the Weather History Date:

Monday, July 22, 2013

  Actual Average (KDEQ) Record (KDEQ)
Temperature  
Mean Temperature 85 °F 81 °F  
Max Temperature 95 °F 93 °F 105 °F (1939)
Min Temperature 75 °F 70 °F 54 °F (1970)
Degree Days  
Heating Degree Days 0 0  
Month to date heating degree days 0  
Since 1 June heating degree days 0  
Since 1 July heating degree days 0  
Cooling Degree Days 20 16  
Month to date cooling degree days 351  
Year to date cooling degree days 946  
Since 1 June cooling degree days 729  
Growing Degree Days 35 (Base 50)    
Moisture  
Dew Point 74 °F    
Average Humidity 72    
Maximum Humidity 100    
Minimum Humidity 44    
Precipitation  
Precipitation 0.00 in 0.11 in 2.14 in (1936)
Month to date precipitation 2.89  
Year to date precipitation 28.53  
Snow  
Snow 0.00 in - - ()
Month to date snowfall  
Since 1 June snowfall  
Since 1 July snowfall  
Snow Depth -    
Sea Level Pressure  
Sea Level Pressure 29.95 in    
Wind  
Wind Speed 4 mph (SW)    
Max Wind Speed 12 mph    
Max Gust Speed 21 mph    
Visibility 10 miles    
Events      
T = Trace of Precipitation, MM = Missing Value Source: NWS Daily Summary

Daily Weather History Graph

Daily Weather History Graph

Search for Another Location

Airport or City:

Trip Planner

Search our weather history database for the weather conditions in past years. The results will help you decide how hot, cold, wet, or windy it might be!

Date:

Astronomy

Jul. 22, 2013 Rise Set
Actual Time 6:20 AM CDT 8:26 PM CDT
Civil Twilight 5:51 AM CDT 8:54 PM CDT
Nautical Twilight 5:17 AM CDT 9:28 PM CDT
Astronomical Twilight 4:40 AM CDT 10:05 PM CDT
Moon 8:16 PM CDT (7/22) 6:14 AM CDT (7/22)
Length of Visible Light 15h 02m
Length of Day
14h 05m
Full, 100% of the Moon is Illuminated
Jul 22
Full
Jul 22
Full
Jul 29
Last Quarter
Aug 6
New
Aug 14
First Quarter

Hourly Weather History & Observations

Time (CDT) Temp. Heat Index Dew Point Humidity Pressure Visibility Wind Dir Wind Speed Gust Speed Precip Events Conditions
12:15 AM 77.0 °F - - N/A% 29.94 in 5.0 mi Calm Calm - N/A   Clear
12:35 AM 77.0 °F - - N/A% 29.94 in 5.0 mi Calm Calm - N/A   Clear
12:55 AM 77.0 °F - - N/A% 29.94 in 5.0 mi Calm Calm - N/A   Clear
1:15 AM 77.0 °F - - N/A% 29.94 in 7.0 mi Calm Calm - N/A   Clear
1:35 AM 75.2 °F - - N/A% 29.94 in 7.0 mi Calm Calm - N/A   Clear
1:55 AM 77.0 °F - - N/A% 29.94 in 7.0 mi Calm Calm - N/A   Clear
2:15 AM 78.8 °F - 78.8 °F 100% 29.93 in 10.0 mi SW 3.5 mph - N/A   Clear
2:35 AM 80.6 °F 89.3 °F 80.6 °F 100% 29.93 in 10.0 mi WSW 5.8 mph - N/A   Clear
2:55 AM 80.6 °F 89.3 °F 80.6 °F 100% 29.93 in 10.0 mi SW 3.5 mph - N/A   Clear
3:15 AM 80.6 °F 89.3 °F 80.6 °F 100% 29.94 in 10.0 mi Calm Calm - N/A   Clear
3:35 AM 78.8 °F - 78.8 °F 100% 29.94 in 10.0 mi WSW 4.6 mph - N/A   Clear
3:55 AM 78.8 °F - 78.8 °F 100% 29.94 in 10.0 mi WSW 5.8 mph - N/A   Clear
4:15 AM 78.8 °F - 78.8 °F 100% 29.94 in 10.0 mi WSW 4.6 mph - N/A   Clear
4:35 AM 78.8 °F - 78.8 °F 100% 29.94 in 10.0 mi Calm Calm - N/A   Clear
4:55 AM 78.8 °F - 78.8 °F 100% 29.94 in 10.0 mi Calm Calm - N/A   Clear
5:15 AM 78.8 °F - 78.8 °F 100% 29.94 in 10.0 mi WSW 9.2 mph - N/A   Clear
5:35 AM 78.8 °F - 78.8 °F 100% 29.94 in 10.0 mi WSW 4.6 mph - N/A   Clear
5:55 AM 78.8 °F - 78.8 °F 100% 29.94 in 10.0 mi WSW 6.9 mph - N/A   Mostly Cloudy
6:15 AM 78.8 °F - 78.8 °F 100% 29.95 in 10.0 mi Calm Calm - N/A   Overcast
6:35 AM 78.8 °F - 78.8 °F 100% 29.94 in 10.0 mi WSW 11.5 mph 17.3 mph N/A   Mostly Cloudy
6:55 AM 78.8 °F - 78.8 °F 100% 29.94 in 10.0 mi SW 11.5 mph 17.3 mph N/A   Mostly Cloudy
7:15 AM 78.8 °F - 78.8 °F 100% 29.95 in 10.0 mi WSW 9.2 mph 20.7 mph N/A   Overcast
7:35 AM 78.8 °F - 78.8 °F 100% 29.95 in 10.0 mi WSW 9.2 mph - N/A   Overcast
7:55 AM 78.8 °F - 78.8 °F 100% 29.96 in 10.0 mi WSW 9.2 mph - N/A   Overcast
8:35 AM 80.6 °F 89.3 °F 80.6 °F 100% 29.98 in 10.0 mi WSW 9.2 mph - N/A   Overcast
8:55 AM 80.6 °F 89.3 °F 80.6 °F 100% 29.99 in 10.0 mi WSW 5.8 mph - N/A   Overcast
9:55 AM 80.6 °F 89.3 °F 80.6 °F 100% 30.01 in 10.0 mi WSW 6.9 mph - N/A   Overcast
10:15 AM 80.6 °F 89.3 °F 80.6 °F 100% 30.01 in 10.0 mi West 10.4 mph - N/A   Overcast
10:35 AM 82.4 °F 96.1 °F 82.4 °F 100% 30.00 in 10.0 mi WSW 6.9 mph - N/A   Overcast
10:55 AM 86.0 °F 95.1 °F 75.2 °F 70% 30.00 in 10.0 mi WSW 10.4 mph - N/A   Overcast
11:15 AM 84.2 °F 90.9 °F 73.4 °F 70% 30.00 in 10.0 mi WSW 6.9 mph - N/A   Mostly Cloudy
11:35 AM 87.8 °F 95.6 °F 73.4 °F 62% 30.00 in 10.0 mi SW 5.8 mph - N/A   Overcast
11:55 AM 87.8 °F 93.8 °F 71.6 °F 58% 30.00 in 10.0 mi WSW 8.1 mph - N/A   Overcast
12:15 PM 87.8 °F 93.8 °F 71.6 °F 58% 30.01 in 10.0 mi SW 10.4 mph - N/A   Overcast
12:35 PM 87.8 °F 93.8 °F 71.6 °F 58% 30.01 in 10.0 mi SW 4.6 mph - N/A   Overcast
12:55 PM 89.6 °F 96.2 °F 71.6 °F 55% 30.00 in 10.0 mi SW 8.1 mph - N/A   Mostly Cloudy
1:15 PM 89.6 °F 96.2 °F 71.6 °F 55% 29.99 in 10.0 mi WSW 9.2 mph 16.1 mph N/A   Mostly Cloudy
1:35 PM 91.4 °F 98.4 °F 71.6 °F 52% 29.98 in 10.0 mi WSW 9.2 mph - N/A   Scattered Clouds
1:55 PM 91.4 °F 98.4 °F 71.6 °F 52% 29.98 in 10.0 mi WSW 8.1 mph - N/A   Scattered Clouds
2:15 PM 91.4 °F 98.4 °F 71.6 °F 52% 29.98 in 10.0 mi WSW 9.2 mph - N/A   Mostly Cloudy
2:35 PM 91.4 °F 98.4 °F 71.6 °F 52% 29.97 in 10.0 mi SW 6.9 mph 10.4 mph N/A   Scattered Clouds
2:55 PM 93.2 °F 100.5 °F 71.6 °F 49% 29.97 in 10.0 mi West 6.9 mph - N/A   Scattered Clouds
3:15 PM 95.0 °F 101.3 °F 69.8 °F 44% 29.96 in 10.0 mi WSW 9.2 mph - N/A   Clear
3:35 PM 95.0 °F 101.3 °F 69.8 °F 44% 29.95 in 10.0 mi SW 5.8 mph - N/A   Scattered Clouds
3:55 PM 91.4 °F 98.4 °F 71.6 °F 52% 29.95 in 10.0 mi SSW 3.5 mph - N/A   Mostly Cloudy
4:15 PM 91.4 °F 98.4 °F 71.6 °F 52% 29.95 in 10.0 mi South 3.5 mph - N/A   Scattered Clouds
4:35 PM 91.4 °F 98.4 °F 71.6 °F 52% 29.95 in 10.0 mi Calm Calm - N/A   Scattered Clouds
4:55 PM 91.4 °F 100.1 °F 73.4 °F 55% 29.96 in 10.0 mi Calm Calm - N/A   Scattered Clouds
5:15 PM 89.6 °F 98.2 °F 73.4 °F 59% 29.96 in 10.0 mi Calm Calm - N/A   Clear
5:35 PM 89.6 °F 98.2 °F 73.4 °F 59% 29.95 in 10.0 mi Calm Calm - N/A   Clear
5:55 PM 89.6 °F 98.2 °F 73.4 °F 59% 29.93 in 10.0 mi Calm Calm - N/A   Clear
6:15 PM 89.6 °F 98.2 °F 73.4 °F 59% 29.92 in 10.0 mi Calm Calm - N/A   Clear
6:35 PM 91.4 °F 98.4 °F 71.6 °F 52% 29.91 in 10.0 mi South 5.8 mph - N/A   Clear
6:55 PM 91.4 °F 98.4 °F 71.6 °F 52% 29.90 in 10.0 mi South 4.6 mph - N/A   Clear
7:15 PM 91.4 °F 98.4 °F 71.6 °F 52% 29.91 in 10.0 mi South 3.5 mph - N/A   Clear
7:35 PM 91.4 °F 98.4 °F 71.6 °F 52% 29.91 in 10.0 mi SSW 4.6 mph - N/A   Clear
7:55 PM 89.6 °F 96.2 °F 71.6 °F 55% 29.92 in 10.0 mi SSW 4.6 mph - N/A   Clear
8:15 PM 89.6 °F 96.2 °F 71.6 °F 55% 29.93 in 10.0 mi Calm Calm - N/A   Clear
8:35 PM 87.8 °F 93.8 °F 71.6 °F 58% 29.93 in 10.0 mi SSW 3.5 mph - N/A   Clear
8:55 PM 87.8 °F 93.8 °F 71.6 °F 58% 29.93 in 10.0 mi Calm Calm - N/A   Clear
9:15 PM 87.8 °F 93.8 °F 71.6 °F 58% 29.93 in 10.0 mi Calm Calm - N/A   Clear
9:35 PM 86.0 °F 91.8 °F 71.6 °F 62% 29.93 in 10.0 mi Calm Calm - N/A   Clear
9:55 PM 87.8 °F 93.8 °F 71.6 °F 58% 29.93 in 10.0 mi SSW 3.5 mph - N/A   Clear
10:15 PM 87.8 °F 93.8 °F 71.6 °F 58% 29.94 in 10.0 mi SSW 4.6 mph - N/A   Clear
10:35 PM 87.8 °F 93.8 °F 71.6 °F 58% 29.94 in 10.0 mi SSW 3.5 mph - N/A   Clear
10:55 PM 87.8 °F 92.6 °F 69.8 °F 55% 29.95 in 10.0 mi SSW 4.6 mph - N/A   Clear
11:15 PM 87.8 °F 91.4 °F 68.0 °F 52% 29.95 in 10.0 mi SW 8.1 mph - N/A   Clear
11:35 PM 87.8 °F 91.4 °F 68.0 °F 52% 29.95 in 10.0 mi SW 6.9 mph - N/A   Clear
11:55 PM 87.8 °F 91.4 °F 68.0 °F 52% 29.96 in 10.0 mi SW 9.2 mph - N/A   Clear